OneWeb SL0548

operational
NORAD ID: 56050 Int'l Des: 2023-043 Owner: ONEWEBN Country: UK Constellation: oneweb
LEOCIRCULARPOLARONEWEB_TYPE

OneWeb SL0548について

説明を読み込み中...

リアルタイム位置

3D地球を読み込み中...

次回通過

高度履歴

Altitude vs Time

uPlot chart will show altitude changes over time

軌道要素

1 56050U 23043E 25348.83151061 -.00000053 00000-0 -17283-3 0 9999
2 56050 87.9038 265.4822 0002045 85.1677 274.9687 13.16593796134705
Epoch: Dec 14, 2025 • Age: 25 hours

現在のステータス

高度 1210.1 km
速度 7.25 km/s
衛星直下点 -30.35°S, 50.77°E
打ち上げ日 Mar 26, 2023
運用期間 2.7 years
タイプ internet

技術仕様

分類 Payload
質量 148.00 kg
乾燥質量 140.00 kg
総質量 148.00 kg
長さ 1.30 m
直径 1.00 m
スパン 5.00 m
形状 Trapezoid+2 pan
製造者 ONEWUS
バスタイプ ARROW
フェーズステータス In Orbit
所有者/国 ONEWEBN/UK

大規模コンステレーション

Loading constellations...